Temperature
18 18 18 19 19 19 19 19 19 19 19 19 19 19 19 19 19 19 19 19 19 19 19 19 19 19 19 19 19 19 19 19 18 18 18 18 18 18 18 18 18 18 18
18 18 18 19 19 19 19 19 19 19 19 19 19 19 19 19 19 19 19 19 19 19 19 19 19 19 19 19 19 19 19 18 18 18 18 18 18 18 18 18 18 18 18
19 18 18 18 18 18 18 18 18 18 19 19 19 19 19 19 19 19 19 19 19 19 19 19 19 19 19 19 19 19 19 18 18 18 18 18 18 18 18 18 18 18 18
19 18 18 18 18 18 18 18 18 18 18 18 18 18 18 18 18 18 18 18 18 18 19 19 19 19 19 19 19 19 19 18 18 18 18 18 18 18 18 18 18 18 18
18 18 18 18 18 18 18 18 18 18 18 18 18 18 18 18 18 18 18 18 18 18 18 18 18 18 18 19 19 19 19 18 18 18 18 18 18 18 18 18 18 18 18
18 18 18 18 18 18 18 18 18 18 18 18 18 18 17 17 17 17 17 18 18 18 18 18 18 18 18 18 18 18 18 18 18 18 18 18 18 18 18 18 18 18 18
18 18 18 18 18 17 17 17 17 17 17 17 17 17 17 17 17 17 17 17 17 17 17 18 18 18 18 18 18 18 18 18 18 18 18 18 18 18 18 18 18 18 18
18 18 18 18 18 17 17 17 17 17 17 17 17 17 17 17 17 17 17 17 17 17 17 17 17 17 17 18 18 18 18 18 18 18 18 18 18 18 18 18 18 18 18
18 18 18 18 17 17 17 17 17 16 16 16 16 16 16 16 16 16 16 16 16 17 17 17 17 17 17 17 17 18 18 18 18 18 18 18 18 18 18 18 18 18 18
18 18 18 18 17 17 17 16 16 16 16 16 16 16 16 16 16 16 16 16 16 16 16 16 16 17 17 17 17 17 17 18 18 18 18 18 18 18 18 18 18 18 18
18 18 18 18 17 17 17 16 16 16 16 16 15 15 15 15 15 15 15 15 15 16 16 16 16 16 17 17 17 17 17 17 17 18 18 18 18 18 18 18 18 18 18
19 18 18 18 17 17 17 16 16 16 15 15 15 15 15 15 15 15 15 15 15 15 15 16 16 16 16 16 16 17 17 17 17 17 17 17 18 18 18 18 18 18 18
19 18 18 18 17 17 17 16 16 16 15 15 15 15 15 15 15 15 15 15 15 15 15 15 15 16 16 16 16 16 17 17 17 17 17 17 17 18 18 18 18 18 18
19 18 18 18 17 17 17 16 16 16 15 15 15 15 15 15 15 15 15 15 15 15 15 15 15 15 15 16 16 16 16 17 17 17 17 17 17 17 18 18 18 18 18
19 19 18 18 17 17 17 16 16 15 15 15 15 15 15 14 14 14 14 15 15 15 15 15 15 15 15 16 16 16 16 17 17 17 17 17 17 17 17 18 18 18 18
19 19 18 18 17 17 17 16 16 15 15 15 15 14 14 14 14 14 14 14 14 14 14 15 15 15 15 15 15 16 16 16 16 17 17 17 17 17 17 17 18 18 18
19 19 18 18 17 17 16 16 15 15 15 15 14 14 14 14 14 14 14 14 14 14 14 14 14 15 15 15 15 16 16 16 16 16 17 17 17 17 17 17 17 17 18
20 19 19 18 17 17 16 16 15 15 15 14 14 14 14 14 14 14 14 14 14 14 14 14 14 14 15 15 15 15 16 16 16 16 16 17 17 17 17 17 17 17 17
20 19 18 18 17 17 16 16 15 15 14 14 14 14 14 14 13 13 13 13 13 13 14 14 14 14 14 15 15 15 15 16 16 16 16 16 16 17 17 17 17 17 17
20 19 19 18 17 17 16 15 15 15 14 14 14 14 13 13 13 13 13 13 13 13 13 14 14 14 14 14 15 15 15 16 16 16 16 16 16 17 17 17 17 17 17
20 19 19 18 17 16 16 15 15 14 14 14 14 13 13 13 13 13 13 13 13 13 13 13 13 14 14 14 15 15 15 15 16 16 16 16 16 16 17 17 17 17 17
20 19 18 18 17 16 16 15 15 14 14 14 13 13 13 13 13 13 13 13 13 13 13 13 13 13 14 14 14 15 15 15 15 16 16 16 16 16 16 17 17 17 17
20 19 19 18 17 16 16 15 15 14 14 14 13 13 13 13 13 13 13 13 13 13 13 13 13 13 14 14 14 14 14 14 15 15 16 16 16 16 16 16 17 17 17
20 19 19 18 17 16 16 15 15 14 14 14 13 13 13 13 13 13 13 13 13 13 13 13 13 13 13 14 14 14 14 14 14 15 15 16 16 16 16 16 16 16 17
20 19 18 18 17 16 16 15 15 14 14 14 13 13 13 13 13 13 13 13 13 13 13 13 13 13 13 13 13 14 14 14 14 14 15 15 15 16 16 16 16 16 16
19 19 18 18 17 16 16 15 15 14 14 14 14 13 13 13 13 13 13 13 13 13 13 13 13 13 13 13 13 13 14 14 14 14 14 15 15 15 15 16 16 16 16
Wind_Speed
4 6 11 11 10 9 9 9 9 8 8 8 8 8 8 8 8 8 7 7 7 7 7 7 7 7 7 7 7 7 7 7 6 6 5 5 6 6 7 8 8 7 9
7 8 11 11 10 9 8 8 8 7 6 6 6 6 6 6 5 5 5 5 5 5 5 5 5 5 5 5 5 5 5 5 5 4 4 3 4 5 6 8 7 7 9
10 9 11 11 10 9 8 7 6 6 5 5 4 4 4 4 4 3 3 3 3 3 3 3 3 3 3 3 3 3 3 4 4 4 3 2 2 4 6 8 8 8 8
10 10 11 11 10 9 7 7 6 5 5 4 3 3 3 2 2 1 1 2 2 2 2 2 2 2 2 2 1 1 2 3 3 3 3 1 2 5 7 8 8 8 8
9 10 12 12 10 9 7 6 5 4 4 3 2 2 1 1 0 1 1 1 1 2 2 2 2 2 2 1 0 1 1 2 3 3 2 1 3 6 7 7 8 8 8
9 10 12 12 11 9 8 6 5 3 2 1 1 1 1 2 2 2 2 2 2 3 3 3 3 3 3 2 2 2 2 3 3 2 1 2 4 7 8 8 7 7 7
9 9 12 12 11 9 8 6 4 3 2 1 1 2 2 3 3 3 3 3 3 4 4 4 4 4 4 4 4 4 3 4 3 2 1 3 6 8 9 8 8 8 7
10 9 11 12 11 9 7 6 4 3 1 1 2 3 3 4 4 5 5 5 5 5 6 6 6 5 6 6 6 5 5 5 3 2 2 4 8 9 9 9 8 8 8
9 7 7 9 9 9 8 7 5 3 2 2 3 4 5 6 6 6 6 7 7 7 7 7 7 7 7 7 7 7 7 6 4 3 3 4 7 10 10 10 9 9 8
7 7 6 7 8 7 7 7 5 3 2 3 4 5 6 7 7 7 8 8 8 8 8 8 8 8 9 9 9 9 8 6 4 3 3 5 8 10 10 10 10 10 9
7 6 6 5 5 6 6 5 4 3 2 3 4 6 6 6 6 6 8 9 9 9 8 9 9 9 9 9 9 9 8 5 4 3 4 6 8 10 11 11 11 11 10
7 6 5 6 5 5 5 3 2 2 3 3 4 5 5 4 5 5 6 6 7 7 7 8 8 8 7 5 7 8 5 4 3 4 5 7 9 11 11 12 11 11 10
7 6 6 6 5 4 2 2 1 1 1 2 2 2 2 3 4 4 4 5 5 5 3 5 5 4 4 3 4 4 4 3 3 4 5 7 9 11 12 12 12 12 11
7 7 6 6 5 4 3 2 2 1 0 1 2 2 2 2 2 2 2 3 3 2 2 2 2 3 3 3 4 4 4 3 4 4 6 8 9 10 11 12 12 12 12
8 7 7 7 6 4 3 2 2 1 1 1 3 4 3 2 2 3 2 2 3 3 2 2 2 2 2 2 3 3 4 4 4 5 6 7 9 10 11 12 12 13 13
9 8 7 7 6 5 4 3 2 1 2 3 3 4 5 3 2 2 3 3 2 3 2 1 2 1 2 1 2 2 3 3 4 5 5 6 9 10 11 12 12 13 13
10 8 8 8 6 6 5 3 2 2 3 2 3 5 6 5 3 2 3 3 3 3 3 2 2 1 1 1 2 2 2 2 2 3 4 5 7 9 11 11 11 13 13
10 9 8 8 7 6 5 4 2 3 3 2 2 4 5 6 4 2 3 3 3 3 2 1 1 2 2 2 2 2 1 1 2 3 3 4 5 6 8 10 11 12 13
11 10 8 8 7 6 5 4 3 3 3 2 2 2 3 4 4 3 2 2 3 2 2 2 2 1 2 2 2 1 1 2 2 3 3 4 5 5 6 9 11 12 12
10 10 9 8 7 6 4 4 3 3 2 1 1 1 1 2 3 2 2 3 3 2 2 2 2 1 1 2 2 2 2 2 2 2 3 2 3 5 7 7 7 9 12
10 10 9 8 6 5 3 3 2 0 0 1 1 1 0 1 2 2 2 3 3 2 1 2 1 2 2 2 2 3 3 2 1 1 1 1 2 3 5 7 6 6 7
11 10 9 9 7 6 4 3 2 2 1 1 1 1 1 1 1 1 1 2 2 1 2 2 2 1 2 2 2 2 3 4 3 2 1 1 1 1 2 5 5 6 6
11 11 10 9 8 6 5 3 3 3 3 2 2 2 2 2 1 1 1 1 1 1 1 1 1 2 1 2 2 3 2 1 2 3 2 2 1 1 2 2 4 5 7
11 10 10 9 8 7 6 5 4 3 1 2 2 2 2 2 2 1 1 0 1 0 0 1 1 1 2 1 1 1 1 2 1 2 3 3 2 1 1 2 3 4 6
10 10 10 9 8 7 6 6 5 3 2 2 1 1 2 2 2 1 1 1 1 0 0 1 1 1 1 1 1 0 1 1 1 2 1 3 3 2 2 2 2 2 4
9 9 10 10 7 7 6 6 6 5 3 1 1 1 1 2 2 2 1 1 0 0 1 0 1 1 1 1 1 1 1 1 1 1 1 1 2 2 2 1 0 1 2
Wind_Direction
150 162 146 137 132 127 122 117 113 112 112 111 110 109 108 106 104 103 100 96 93 90 86 83 82 78 75 70 64 63 63 61 61 65 72 80 85 91 95 103 99 91 88
150 150 140 133 129 126 123 119 116 112 112 112 109 108 108 108 107 105 103 102 100 98 94 91 90 88 85 76 65 58 55 53 46 47 58 80 94 104 107 111 108 107 94
138 140 136 132 130 128 125 120 114 109 107 107 107 101 98 102 105 104 104 105 110 111 109 111 110 105 100 90 71 53 46 40 30 26 34 98 134 126 120 115 113 112 103
138 138 135 134 131 129 125 118 111 105 101 97 97 97 95 100 102 113 127 133 150 152 146 154 149 139 129 112 86 47 29 22 14 10 20 155 174 143 134 125 120 116 110
136 138 138 135 131 128 124 121 116 109 102 92 82 83 72 45 350 290 267 243 215 213 195 193 194 191 184 175 197 304 336 342 344 4 356 177 165 158 145 135 130 124 118
141 142 142 138 134 131 128 125 119 112 103 82 40 335 292 294 295 292 286 271 248 244 237 227 217 217 220 225 238 258 280 298 312 338 343 192 177 168 153 145 140 134 127
146 149 149 144 142 139 138 136 130 118 92 29 337 325 312 297 288 284 283 277 268 261 251 243 237 229 231 243 248 251 261 281 279 284 256 206 191 174 159 153 149 144 139
152 158 158 154 153 152 151 151 150 150 145 353 330 316 303 301 293 280 275 274 267 263 257 252 246 237 238 245 251 252 255 265 275 293 284 218 200 182 169 162 157 152 149
152 154 162 164 164 163 164 165 169 181 210 273 305 309 297 295 299 293 279 270 267 265 263 259 254 248 249 251 252 252 253 260 268 269 275 232 208 189 178 170 165 160 156
153 157 166 172 171 173 181 182 186 198 229 274 292 300 300 303 306 299 287 272 268 269 268 266 261 256 255 256 255 254 255 264 260 255 264 249 223 197 184 178 173 170 165
159 164 165 170 172 181 192 196 198 215 256 290 304 305 306 307 306 302 290 274 265 267 270 271 267 262 257 258 259 258 258 251 247 246 250 247 225 202 191 184 178 175 171
170 171 163 163 165 174 191 182 205 246 280 299 305 313 315 316 316 314 302 288 273 273 276 274 271 267 262 256 259 261 249 244 240 241 246 250 224 203 194 187 180 178 176
169 161 157 158 156 156 158 160 178 230 302 328 330 339 355 358 355 355 350 331 315 301 298 295 292 279 258 238 240 247 245 240 237 242 247 246 222 204 196 191 184 182 181
157 157 151 148 144 146 128 116 128 122 82 349 356 23 42 15 2 3 0 340 334 318 304 298 286 279 266 248 237 236 238 227 229 233 243 237 220 209 201 194 189 187 185
157 156 148 140 135 134 111 99 95 100 90 50 35 27 42 33 6 0 351 360 348 330 311 305 296 294 285 258 247 237 240 232 226 227 244 235 224 216 208 201 194 190 189
163 156 147 137 137 127 111 104 108 98 81 68 57 46 47 47 20 4 356 354 345 339 328 307 309 301 287 275 271 260 244 234 229 223 224 231 228 223 216 209 201 195 191
164 154 147 142 133 122 114 107 101 94 93 73 56 53 48 44 39 27 5 352 335 344 353 356 343 349 336 314 289 276 255 248 231 227 216 220 229 229 219 214 209 201 196
156 150 147 137 128 120 115 107 98 94 93 89 77 55 41 36 41 41 15 347 341 357 359 1 5 358 344 327 308 296 274 258 236 230 211 215 218 224 223 219 213 206 200
158 150 140 134 134 128 116 106 95 93 97 111 91 60 38 30 34 41 16 339 350 357 359 354 26 8 338 324 294 281 272 246 229 223 211 217 220 222 219 221 217 211 206
154 147 140 136 137 125 105 89 69 64 61 94 111 68 36 22 28 43 11 345 353 8 1 2 2 347 314 307 314 331 302 269 234 215 213 215 215 218 215 209 208 214 211
150 147 145 144 146 131 115 112 104 102 282 296 273 268 2 8 18 36 2 348 354 6 344 352 8 357 347 1 32 360 346 328 289 250 236 210 220 221 207 201 200 206 212
160 156 154 153 152 148 147 155 166 177 219 240 281 306 283 276 321 10 13 347 347 3 8 14 41 34 355 32 82 64 7 351 340 330 307 243 237 220 212 203 194 197 205
162 163 161 159 154 154 145 114 80 57 32 16 335 303 295 274 302 12 2 358 1 48 2 338 59 96 34 358 67 114 115 255 311 330 340 351 343 222 233 217 200 199 204
170 163 155 156 156 156 143 131 135 141 174 240 247 264 290 289 288 302 348 11 30 60 358 318 69 110 110 48 0 42 143 171 134 343 339 341 334 310 255 238 220 209 204
164 159 156 154 156 158 150 146 145 154 196 245 270 311 315 310 308 307 328 17 38 31 349 15 37 72 103 121 107 30 37 49 85 119 329 330 342 325 287 252 215 202 206
159 156 154 154 161 164 159 156 163 168 173 176 291 325 300 295 307 305 290 318 338 352 358 40 58 77 80 87 94 108 121 100 94 114 160 310 318 309 320 337 231 205 201
Height
1518 1518 1519 1520 1520 1521 1521 1521 1522 1522 1522 1522 1522 1523 1523 1523 1524 1524 1524 1524 1524 1524 1524 1524 1524 1524 1524 1524 1524 1524 1523 1523 1523 1523 1523 1523 1523 1522 1522 1522 1522 1521 1521
1517 1518 1519 1520 1520 1520 1521 1521 1521 1521 1522 1522 1522 1522 1523 1523 1523 1523 1523 1523 1523 1523 1524 1524 1524 1524 1524 1524 1524 1524 1523 1523 1523 1523 1523 1523 1523 1523 1523 1523 1522 1522 1522
1517 1518 1519 1520 1520 1520 1520 1520 1521 1521 1521 1521 1521 1521 1521 1522 1522 1522 1522 1522 1523 1523 1523 1523 1523 1523 1523 1523 1523 1523 1523 1523 1523 1523 1523 1523 1523 1523 1523 1523 1523 1523 1523
1518 1518 1519 1519 1520 1520 1520 1520 1520 1520 1520 1520 1520 1520 1520 1520 1520 1521 1521 1521 1521 1521 1522 1522 1522 1522 1523 1523 1523 1523 1523 1523 1523 1523 1523 1523 1523 1523 1523 1523 1524 1523 1523
1518 1519 1519 1519 1519 1519 1519 1519 1519 1519 1519 1518 1518 1518 1518 1519 1519 1519 1519 1519 1520 1520 1520 1521 1521 1521 1522 1522 1522 1522 1522 1523 1523 1523 1523 1523 1523 1523 1523 1524 1524 1524 1524
1518 1519 1519 1519 1519 1518 1518 1518 1518 1518 1517 1517 1517 1517 1517 1517 1517 1517 1517 1517 1517 1518 1518 1519 1519 1520 1520 1521 1521 1521 1522 1522 1522 1522 1523 1523 1523 1523 1523 1524 1524 1524 1524
1518 1519 1519 1519 1518 1518 1518 1517 1517 1516 1516 1515 1515 1514 1514 1514 1514 1515 1515 1515 1515 1516 1516 1517 1517 1518 1518 1519 1520 1520 1521 1521 1522 1522 1522 1522 1523 1523 1523 1524 1524 1524 1525
1518 1518 1519 1519 1518 1518 1517 1517 1516 1515 1515 1514 1513 1513 1513 1512 1512 1512 1512 1513 1513 1513 1514 1514 1515 1515 1516 1517 1518 1519 1519 1520 1521 1521 1522 1522 1522 1523 1523 1523 1524 1524 1525
1518 1518 1518 1518 1518 1518 1517 1516 1515 1515 1514 1513 1512 1512 1511 1511 1511 1510 1510 1510 1511 1511 1511 1511 1512 1513 1514 1515 1516 1517 1518 1518 1519 1520 1520 1521 1521 1522 1522 1523 1523 1524 1525
1518 1518 1518 1518 1518 1517 1517 1516 1515 1514 1513 1513 1512 1511 1511 1510 1510 1509 1509 1509 1509 1509 1509 1509 1509 1510 1511 1512 1513 1514 1515 1517 1518 1519 1519 1520 1521 1521 1522 1522 1523 1524 1525
1518 1518 1518 1518 1518 1517 1517 1516 1515 1514 1513 1512 1512 1511 1510 1509 1509 1508 1508 1507 1507 1507 1507 1507 1507 1507 1508 1509 1511 1512 1513 1515 1516 1517 1518 1519 1519 1520 1521 1522 1522 1523 1524
1517 1518 1518 1518 1517 1517 1516 1516 1515 1514 1513 1512 1511 1510 1509 1509 1508 1507 1506 1506 1506 1505 1505 1505 1505 1505 1506 1507 1508 1510 1511 1513 1514 1515 1516 1517 1518 1519 1520 1521 1522 1523 1524
1516 1517 1517 1517 1517 1516 1516 1515 1514 1513 1513 1512 1511 1510 1509 1508 1507 1506 1505 1505 1504 1504 1504 1504 1504 1504 1504 1505 1506 1508 1509 1510 1512 1513 1514 1516 1517 1517 1518 1520 1521 1522 1523
1516 1516 1516 1516 1516 1516 1515 1515 1514 1513 1512 1511 1510 1509 1508 1507 1506 1505 1504 1503 1503 1502 1502 1502 1502 1502 1502 1503 1504 1506 1507 1508 1510 1511 1513 1514 1515 1516 1517 1518 1519 1521 1522
1514 1515 1515 1515 1515 1515 1515 1514 1513 1512 1511 1510 1509 1508 1507 1506 1505 1504 1503 1502 1501 1501 1500 1500 1500 1500 1500 1501 1502 1503 1504 1506 1508 1509 1511 1512 1513 1515 1516 1517 1518 1519 1521
1513 1514 1514 1514 1514 1514 1514 1513 1512 1511 1510 1509 1508 1507 1506 1505 1504 1503 1502 1501 1500 1499 1499 1498 1499 1499 1499 1499 1500 1501 1502 1504 1505 1507 1509 1510 1512 1513 1514 1516 1517 1518 1519
1512 1513 1513 1513 1513 1513 1513 1512 1511 1510 1510 1509 1508 1507 1505 1504 1503 1501 1500 1499 1498 1498 1497 1497 1497 1497 1497 1497 1498 1499 1500 1502 1503 1505 1506 1508 1510 1511 1513 1514 1515 1517 1518
1511 1512 1512 1512 1512 1512 1512 1511 1510 1510 1509 1508 1507 1506 1504 1503 1501 1500 1499 1498 1497 1496 1495 1495 1495 1495 1495 1496 1496 1497 1499 1500 1502 1503 1504 1506 1508 1510 1511 1512 1513 1515 1516
1509 1510 1510 1511 1511 1511 1511 1510 1510 1509 1508 1507 1506 1505 1503 1501 1500 1499 1498 1496 1495 1495 1494 1494 1494 1494 1494 1494 1495 1496 1497 1498 1500 1501 1502 1504 1506 1508 1509 1510 1512 1513 1515
1508 1509 1509 1509 1510 1510 1509 1509 1509 1508 1508 1507 1505 1504 1502 1500 1499 1498 1497 1496 1495 1494 1493 1493 1493 1493 1493 1493 1493 1494 1495 1497 1498 1500 1501 1502 1504 1505 1507 1509 1510 1512 1513
1506 1507 1508 1508 1508 1508 1508 1508 1508 1507 1507 1506 1505 1503 1501 1500 1498 1497 1496 1495 1494 1493 1492 1492 1492 1492 1492 1492 1492 1493 1494 1495 1497 1498 1499 1501 1502 1503 1505 1507 1508 1510 1512
1504 1505 1506 1507 1507 1507 1507 1507 1507 1506 1506 1505 1504 1503 1501 1500 1498 1497 1496 1494 1493 1493 1492 1491 1491 1491 1491 1491 1492 1492 1493 1495 1495 1496 1498 1499 1500 1502 1503 1505 1506 1508 1510
1502 1504 1504 1505 1506 1506 1506 1506 1506 1506 1505 1504 1503 1502 1501 1499 1498 1497 1495 1494 1493 1492 1492 1491 1491 1491 1491 1491 1492 1493 1493 1494 1494 1496 1496 1497 1498 1500 1501 1503 1504 1506 1508
1501 1502 1503 1504 1504 1505 1505 1505 1505 1505 1504 1504 1503 1502 1501 1499 1498 1497 1495 1494 1493 1492 1491 1491 1491 1491 1491 1491 1492 1492 1493 1494 1494 1494 1496 1496 1497 1498 1500 1501 1502 1504 1506
1499 1500 1501 1502 1503 1503 1504 1504 1504 1504 1503 1503 1502 1501 1500 1499 1498 1497 1495 1494 1493 1492 1491 1491 1490 1490 1490 1491 1491 1492 1493 1493 1494 1494 1495 1496 1496 1497 1498 1499 1501 1502 1504
1498 1499 1500 1501 1501 1502 1502 1503 1503 1503 1502 1502 1502 1501 1500 1499 1498 1497 1496 1495 1493 1492 1491 1491 1490 1490 1490 1490 1491 1491 1492 1493 1493 1494 1494 1495 1495 1496 1497 1498 1499 1500 1502